Kuchera_Ratio
0.0 0.0 0.0 0.0 0.0 0.0 0.0 0.0 0.0 0.0 0.0 0.0 0.0 0.0 0.0 0.0 0.0 0.0 0.0 0.0 0.0 0.0 0.0 0.0 0.0 0.0 0.0 0.0 0.0 0.0 0.0 0.0 0.0 0.0 0.0 0.0 0.0 0.0 0.0 0.0 0.0 0.0 0.0 0.0 0.0 0.0 0.0
0.0 0.0 0.0 0.0 0.0 0.0 0.0 0.0 0.0 0.0 0.0 0.0 0.0 0.0 0.0 0.0 0.0 0.0 0.0 0.0 0.0 0.0 0.0 0.0 0.0 0.0 0.0 0.0 0.0 0.0 0.0 0.0 0.0 0.0 0.0 0.0 0.0 0.0 0.0 0.0 0.0 0.0 0.0 0.0 0.0 0.0 0.0
0.0 0.0 0.0 0.0 0.0 0.0 0.0 0.0 0.0 0.0 0.0 0.0 0.0 0.0 0.0 0.0 0.0 0.0 0.0 0.0 0.0 0.0 0.0 0.0 0.0 0.0 0.0 0.0 0.0 0.0 0.0 0.0 0.0 0.0 0.0 0.0 0.0 0.0 0.0 0.0 0.0 0.0 0.0 0.0 0.0 0.0 0.0
0.0 0.0 0.0 0.0 0.0 0.0 0.0 0.0 0.0 0.0 0.0 0.0 0.0 0.0 0.0 0.0 0.0 0.0 0.0 0.0 0.0 0.0 0.0 0.0 0.0 0.0 0.0 0.0 0.0 0.0 0.0 0.0 0.0 0.0 0.0 0.0 0.0 0.0 0.0 0.0 0.0 0.0 0.0 0.0 0.0 0.0 0.0
0.0 0.0 0.0 0.0 0.0 0.0 0.0 0.0 0.0 0.0 0.0 0.0 0.0 0.0 0.0 0.0 0.0 0.0 0.0 0.0 0.0 0.0 0.0 0.0 0.0 0.0 0.0 0.0 0.0 0.0 0.0 0.0 0.0 0.0 0.0 0.0 0.0 0.0 0.0 0.0 0.0 0.0 0.0 0.0 0.0 0.0 0.0
0.0 0.0 0.0 0.0 0.0 0.0 0.0 0.0 0.0 0.0 0.0 0.0 0.0 0.0 0.0 0.0 0.0 0.0 0.0 0.0 0.0 0.0 0.0 0.0 0.0 0.0 0.0 0.0 0.0 0.0 0.0 0.0 0.0 0.0 0.0 0.0 0.0 0.0 0.0 0.0 0.0 0.0 0.0 0.0 0.0 0.0 0.0
0.0 0.0 0.0 0.0 0.0 0.0 0.0 0.0 0.0 0.0 0.0 0.0 0.0 0.0 0.0 0.0 0.0 0.0 0.0 0.0 0.0 0.0 0.0 0.0 0.0 0.0 0.0 0.0 0.0 0.0 0.0 0.0 0.0 0.0 0.0 0.0 0.0 0.0 0.0 0.0 0.0 0.0 0.0 0.0 0.0 0.0 0.0
0.0 0.0 0.0 0.0 0.0 0.0 0.0 0.0 0.0 0.0 0.0 0.0 0.0 0.0 0.0 0.0 0.0 0.0 0.0 0.0 0.0 0.0 0.0 0.0 0.0 0.0 0.0 0.0 0.0 0.0 0.0 0.0 0.0 0.0 0.0 0.0 0.0 0.0 0.0 0.0 0.0 0.0 0.0 0.0 0.0 0.0 0.0
0.0 0.0 0.0 0.0 0.0 0.0 0.0 0.0 0.0 0.0 0.0 0.0 0.0 0.0 0.0 0.0 0.0 0.0 0.0 0.0 0.0 0.0 0.0 0.0 0.0 0.0 0.0 0.0 0.0 0.0 0.0 0.0 0.0 0.0 0.0 0.0 0.0 0.0 0.0 0.0 0.0 0.0 0.0 0.0 0.0 0.0 0.0
0.0 0.0 0.0 0.0 0.0 0.0 0.0 0.0 0.0 0.0 0.0 0.0 0.0 0.0 0.0 0.0 0.0 0.0 0.0 0.0 0.0 0.0 0.0 0.0 0.0 0.0 0.0 0.0 0.0 0.0 0.0 0.0 0.0 0.0 0.0 0.0 0.0 0.0 0.0 0.0 0.0 0.0 0.0 0.0 0.0 0.0 2.2
0.0 0.0 0.0 0.0 0.0 0.0 0.0 0.0 0.0 0.0 0.0 0.0 0.0 0.0 0.0 0.0 0.0 0.0 0.0 0.0 0.0 0.0 12.0 0.0 0.0 0.0 0.0 0.0 0.0 0.0 0.0 0.0 0.0 0.0 0.0 0.0 0.0 0.0 0.0 0.0 0.0 0.0 0.0 0.0 0.0 0.0 0.0
0.0 0.0 0.0 0.0 0.0 0.0 0.0 0.0 0.0 0.0 0.0 0.0 0.0 0.0 0.0 0.0 0.0 0.0 0.0 0.0 0.0 0.8 10.3 0.0 0.0 0.0 0.0 0.0 0.0 0.0 0.0 0.0 0.0 0.0 0.0 0.0 0.0 0.0 0.0 0.0 0.0 0.0 0.0 0.0 0.0 0.0 9.8
0.0 0.0 0.0 0.0 0.0 0.0 0.0 0.0 0.0 0.0 0.0 0.0 0.0 0.0 0.0 0.0 0.0 0.0 0.0 0.0 2.7 9.8 0.0 0.0 0.0 0.0 0.0 0.0 0.0 0.0 0.0 0.0 0.0 1.1 0.8 0.0 0.0 0.0 0.0 0.0 0.0 0.0 0.0 9.9 12.6 12.7 9.9
0.0 0.0 0.0 0.0 0.0 0.0 0.0 0.0 0.0 0.0 0.0 0.0 0.0 0.0 0.0 0.0 0.0 0.0 0.0 0.0 11.3 0.5 0.0 0.0 0.0 0.0 0.0 0.0 0.0 0.0 0.0 0.4 0.0 0.0 2.2 8.8 6.6 0.0 0.0 0.0 0.0 0.0 0.0 7.5 13.0 11.3 9.0
0.0 0.0 0.0 0.0 0.0 0.0 0.0 0.0 0.0 0.0 0.0 0.0 0.0 0.0 0.0 0.0 0.0 0.0 0.0 9.3 4.9 1.7 0.0 0.0 0.0 0.8 0.0 0.0 0.0 0.0 0.0 0.0 0.0 0.0 1.2 4.2 5.1 0.0 0.0 0.0 0.0 0.7 3.9 0.0 6.7 6.5 9.3
0.0 0.0 0.0 0.0 0.0 0.0 0.0 0.0 0.0 0.0 0.0 0.0 0.0 0.0 0.0 0.0 0.0 0.0 0.0 5.4 0.6 0.0 0.0 0.0 4.2 0.0 3.6 2.0 2.4 0.9 1.4 0.0 0.0 0.0 0.0 0.0 8.1 0.0 0.0 0.0 0.0 0.0 0.0 8.7 8.5 14.5 14.0
0.0 0.0 0.0 0.0 0.0 0.0 0.0 0.0 0.0 0.0 0.0 0.0 0.0 0.0 0.0 0.0 0.0 0.0 6.1 5.3 0.0 0.0 0.0 0.0 0.2 4.0 5.9 6.6 3.2 6.4 2.7 0.0 0.0 0.0 0.0 0.0 4.0 4.0 0.0 2.0 0.0 0.0 2.7 1.1 3.0 8.1 12.4
0.0 0.0 0.0 0.0 0.0 0.0 0.0 0.0 0.0 0.0 0.0 0.0 0.0 6.6 0.0 0.0 0.6 0.0 5.0 0.0 0.0 0.0 0.0 0.0 0.0 1.3 2.8 1.9 5.0 3.5 3.1 0.0 0.0 0.0 3.3 1.6 4.4 11.1 5.1 0.0 0.0 0.0 0.0 0.0 6.5 11.7 7.3
0.0 0.0 0.0 0.0 0.0 0.0 0.0 0.0 0.0 0.0 0.0 0.0 2.1 1.9 0.0 0.0 9.9 7.6 2.1 0.0 0.0 0.0 0.0 0.0 0.0 0.0 0.0 3.4 9.5 3.7 3.4 0.0 0.0 0.0 3.7 1.2 8.6 13.4 11.4 3.9 0.0 4.9 1.4 0.0 2.7 5.7 10.6
0.0 0.0 0.0 0.0 0.0 0.0 0.0 0.0 0.0 0.0 0.0 0.0 0.6 8.8 0.0 0.0 0.0 2.3 6.0 5.0 4.3 0.0 0.0 0.0 0.0 0.0 4.1 5.9 2.2 7.4 5.4 0.0 0.0 0.0 0.0 0.8 9.2 11.9 14.5 10.2 3.3 7.2 3.5 0.9 3.6 13.6 13.4
0.0 0.0 0.0 0.0 0.0 0.0 0.0 0.0 0.0 0.0 0.0 0.0 0.6 6.0 1.8 9.3 5.1 6.5 3.9 6.6 8.8 7.7 0.0 0.0 5.0 3.0 5.0 8.9 11.2 9.9 5.2 3.6 0.0 0.0 0.0 4.6 12.6 9.4 9.0 7.5 7.0 7.4 7.9 6.7 9.3 6.2 12.4
0.0 0.0 0.0 0.0 0.0 0.0 0.0 0.0 0.0 0.0 0.0 0.0 3.8 4.6 2.5 3.7 2.2 5.3 4.3 6.5 5.8 4.8 4.1 3.8 7.3 3.4 3.2 8.8 7.7 8.5 7.8 8.7 7.6 3.9 3.1 5.6 12.1 8.9 12.6 7.4 7.3 10.7 7.9 7.0 6.7 5.5 5.2
0.0 0.0 0.0 0.0 0.0 0.0 0.0 0.0 0.0 0.0 0.0 0.0 0.0 0.0 0.0 4.0 5.7 10.0 9.8 6.3 4.8 2.4 2.0 0.0 0.3 5.1 9.8 5.7 3.5 4.8 4.7 5.9 6.2 7.1 7.8 9.2 11.8 13.3 15.5 10.5 12.1 15.1 12.6 11.1 9.7 5.6 14.7
0.0 0.0 0.0 0.0 0.0 0.0 0.0 0.0 0.0 0.0 0.0 0.0 0.0 0.0 3.6 10.4 6.8 7.1 4.0 2.5 3.9 3.3 8.4 1.6 2.4 7.0 5.1 1.7 3.4 6.3 7.6 7.4 8.9 8.0 6.2 10.9 12.3 12.7 15.1 14.3 18.8 13.2 14.6 15.0 16.1 16.4 16.6
0.0 0.0 0.0 0.0 0.0 0.0 0.0 0.0 0.0 0.0 0.0 0.0 0.0 0.0 3.2 10.3 6.3 5.8 5.2 4.8 3.6 3.3 5.2 5.9 3.5 3.3 3.6 5.9 12.0 14.9 13.5 13.2 12.2 9.6 10.3 8.4 12.2 14.7 17.5 17.9 13.0 13.5 15.1 16.9 17.8 18.6 16.8
0.0 0.0 0.0 0.0 0.0 0.0 0.0 0.0 0.0 0.0 0.0 0.0 0.0 0.0 0.0 7.2 7.7 2.3 5.4 5.3 9.1 11.8 12.1 5.8 6.7 5.5 6.5 10.5 13.1 17.9 18.8 13.8 14.1 14.0 14.2 12.4 11.6 14.3 16.6 18.0 18.6 18.6 15.7 14.1 15.0 19.8 17.0
0.0 0.0 0.0 0.0 0.0 0.0 0.0 0.0 0.0 0.0 0.0 0.0 0.0 0.0 0.0 7.4 2.8 2.0 8.1 7.7 2.9 6.6 10.4 9.4 9.0 10.1 7.3 13.6 14.2 16.1 16.9 13.3 17.1 17.8 15.2 15.2 15.8 16.9 17.3 17.1 18.0 17.1 15.8 14.4 19.0 20.1 16.2
0.0 0.0 0.0 0.0 0.0 0.0 0.0 0.0 0.0 0.0 0.0 0.0 0.0 0.0 0.0 4.5 3.8 1.6 0.7 5.0 5.1 6.2 12.3 9.0 10.2 11.0 12.6 15.7 16.3 15.4 14.5 14.5 15.2 14.9 15.2 15.8 17.3 16.6 17.0 17.8 19.5 16.1 15.2 19.7 18.2 16.0 15.4
0.0 0.0 0.0 0.0 0.0 0.0 0.0 0.0 0.0 0.0 0.0 0.0 0.0 0.0 0.0 1.3 6.4 5.1 5.2 4.8 5.2 6.0 7.2 7.7 9.3 11.7 9.8 13.1 13.5 13.3 16.2 15.5 15.7 19.2 15.2 17.9 19.3 18.7 18.9 20.0 17.5 17.1 17.4 16.1 15.2 16.3 16.1